Location: Friaudour
(46.0460°N, 1.2873°E)
Time: 14:51:17
(UTC+00:00)

Spot 4 Rocket - Pass Details

Date: 01 November 2020
Orbit: 776 x 781 km, 98.7° (Epoch: 29 November)

Event Time Altitude Azimuth Distance (km) Brightness Sun altitude
Rises 02:31:08 0° 22° (NNE) 3,270 7.8 -42.1°
Reaches altitude 10° 02:33:39 10° 31° (NNE) 2,338 7.0 -41.7°
Enters shadow 02:34:20 13° 35° (NE) 2,101 6.7 -41.6°
